Location: Newark
(49.2191°N, 12.6671°E)
Time: 02:19:26
(UTC+00:00)

Transit 4A - Pass Details

Date: 26 January 2020
Orbit: 872 x 973 km, 66.8° (Epoch: 19 February)

Event Time Altitude Azimuth Distance (km) Brightness Sun altitude
Rises 06:13:38 0° 222° (SW) 3,539 10.7 -6.1°
Reaches altitude 10° 06:16:11 10° 225° (SW) 2,586 10.0 -5.7°
Maximum altitude 06:22:09 69° 309° (NW) 956 7.8 -4.8°
Drops below altitude 10° 06:28:01 10° 33° (NNE) 2,545 10.3 -3.9°
Sets 06:30:31 0° 36° (NE) 3,480 11.0 -3.5°
